Location: Jack Pine
(43.3260°N, 110.4341°W)
Time: 01:29:19
(UTC+00:00)

N. Korean satellite - Visible Passes

Search period start: 19 January 2022 00:00
Search period end: 29 January 2022 00:00
Orbit: 446 x 492 km, 97.3° (Epoch: 18 January)

Date Brightness Start Highest point End Pass type
(mag) Time Alt. Az. Time Alt. Az. Time Alt. Az.
19 Jan 8.9 12:22:38 10° NNE 12:31:28 - S 12:23:34 17° NNE visible
19 Jan 8.8 13:57:36 10° NW 13:57:38 10° NW 13:57:38 10° NW visible
20 Jan 9.6 11:54:03 10° NE 12:02:06 - SSE 11:54:29 12° NE visible
20 Jan 8.2 13:27:05 10° NNW 13:28:33 18° NW 13:28:33 18° NW visible
21 Jan 7.8 12:57:30 10° N 12:59:27 28° N 12:59:27 28° N visible
22 Jan 8.1 12:28:20 10° NNE 12:37:21 - S 12:30:22 30° NNE visible
23 Jan 9.0 11:59:34 10° NE 12:07:55 - SSE 12:01:15 20° ENE visible
23 Jan 7.9 13:32:56 10° NNW 13:35:19 20° WNW 13:35:19 20° WNW visible
24 Jan 10.0 11:31:48 10° ENE 11:32:10 11° ENE 11:32:10 11° ENE visible
24 Jan 7.0 13:03:11 10° N 13:06:12 42° NW 13:06:12 42° NW visible
25 Jan 6.8 12:33:52 10° NNE 12:42:58 - S 12:37:06 65° NE visible
26 Jan 8.4 12:04:57 10° NNE 12:13:26 - S 12:08:00 30° E visible
26 Jan 8.0 13:38:37 10° NNW 13:41:09 18° WNW 13:42:04 17° W visible
27 Jan 9.7 11:36:48 10° ENE 11:38:48 14° E 11:38:54 14° E visible
27 Jan 7.0 13:08:42 10° N 13:12:06 38° WNW 13:12:58 32° WSW visible
28 Jan 6.5 12:39:16 10° NNE 12:42:55 88° E 12:43:52 48° S visible
